TimeCDT,TemperatureF,Dew PointF,Humidity,Sea Level PressureIn,VisibilityMPH,Wind Direction,Wind SpeedMPH,Gust SpeedMPH,PrecipitationIn,Events,Conditions,WindDirDegrees,DateUTC
12:15 AM,53.6,44.6,72,30.07,10.0,Calm,Calm,-,N/A,,Clear,0,2012-10-24 05:15:00
12:35 AM,53.6,46.4,77,30.06,10.0,Calm,Calm,-,N/A,,Clear,0,2012-10-24 05:35:00
1:15 AM,53.6,46.4,77,30.05,10.0,Calm,Calm,-,N/A,,Clear,0,2012-10-24 06:15:00
1:35 AM,50.0,42.8,76,30.05,10.0,Calm,Calm,-,N/A,,Clear,0,2012-10-24 06:35:00
1:55 AM,51.8,44.6,76,30.05,10.0,Calm,Calm,-,N/A,,Clear,0,2012-10-24 06:55:00
2:15 AM,51.8,46.4,82,30.05,10.0,Calm,Calm,-,N/A,,Clear,0,2012-10-24 07:15:00
2:35 AM,50.0,44.6,82,30.05,10.0,Calm,Calm,-,N/A,,Clear,0,2012-10-24 07:35:00
2:55 AM,51.8,46.4,82,30.05,10.0,Calm,Calm,-,N/A,,Clear,0,2012-10-24 07:55:00
3:15 AM,51.8,46.4,82,30.04,10.0,Calm,Calm,-,N/A,,Clear,0,2012-10-24 08:15:00
3:35 AM,51.8,48.2,88,30.03,10.0,Calm,Calm,-,N/A,,Clear,0,2012-10-24 08:35:00
3:55 AM,50.0,46.4,87,30.04,10.0,Calm,Calm,-,N/A,,Clear,0,2012-10-24 08:55:00
4:15 AM,48.2,46.4,93,30.03,10.0,Calm,Calm,-,N/A,,Clear,0,2012-10-24 09:15:00
4:35 AM,48.2,46.4,93,30.03,10.0,Calm,Calm,-,N/A,,Clear,0,2012-10-24 09:35:00
4:55 AM,51.8,48.2,88,30.03,10.0,Calm,Calm,-,N/A,,Clear,0,2012-10-24 09:55:00
5:15 AM,50.0,48.2,94,30.03,10.0,Calm,Calm,-,N/A,,Clear,0,2012-10-24 10:15:00
5:35 AM,50.0,48.2,94,30.03,10.0,Calm,Calm,-,N/A,,Clear,0,2012-10-24 10:35:00
5:55 AM,50.0,46.4,87,30.03,10.0,Calm,Calm,-,N/A,,Clear,0,2012-10-24 10:55:00
6:15 AM,50.0,48.2,94,30.03,8.0,Calm,Calm,-,N/A,,Clear,0,2012-10-24 11:15:00
6:35 AM,48.2,48.2,100,30.04,9.0,Calm,Calm,-,N/A,,Partly Cloudy,0,2012-10-24 11:35:00
6:55 AM,48.2,48.2,100,30.04,8.0,Calm,Calm,-,N/A,,Partly Cloudy,0,2012-10-24 11:55:00
7:15 AM,48.2,48.2,100,30.04,6.0,Calm,Calm,-,N/A,,Clear,0,2012-10-24 12:15:00
7:35 AM,48.2,48.2,100,30.05,7.0,Calm,Calm,-,N/A,,Clear,0,2012-10-24 12:35:00
7:55 AM,48.2,46.4,93,30.05,9.0,Calm,Calm,-,N/A,,Clear,0,2012-10-24 12:55:00
8:15 AM,46.4,44.6,93,30.05,7.0,Calm,Calm,-,N/A,,Clear,0,2012-10-24 13:15:00
8:35 AM,51.8,48.2,88,30.06,5.0,Calm,Calm,-,N/A,,Clear,0,2012-10-24 13:35:00
8:55 AM,53.6,51.8,94,30.06,8.0,Calm,Calm,-,N/A,,Clear,0,2012-10-24 13:55:00
9:35 AM,60.8,57.2,88,30.07,10.0,Calm,Calm,-,N/A,,Clear,0,2012-10-24 14:35:00
9:55 AM,62.6,57.2,82,30.07,10.0,Calm,Calm,-,N/A,,Clear,0,2012-10-24 14:55:00
10:15 AM,66.2,57.2,73,30.07,10.0,Calm,Calm,-,N/A,,Clear,0,2012-10-24 15:15:00
10:35 AM,68.0,55.4,64,30.08,10.0,Calm,Calm,-,N/A,,Clear,0,2012-10-24 15:35:00
10:55 AM,71.6,55.4,57,30.07,10.0,Calm,Calm,-,N/A,,Clear,0,2012-10-24 15:55:00
11:15 AM,73.4,53.6,50,30.07,10.0,South,12.7,-,N/A,,Clear,170,2012-10-24 16:15:00
11:35 AM,75.2,51.8,44,30.06,10.0,South,17.3,21.9,N/A,,Clear,170,2012-10-24 16:35:00
11:55 AM,77.0,53.6,44,30.06,10.0,South,12.7,-,N/A,,Clear,180,2012-10-24 16:55:00
12:15 PM,78.8,51.8,39,30.05,10.0,South,18.4,21.9,N/A,,Clear,170,2012-10-24 17:15:00
12:35 PM,80.6,51.8,37,30.04,10.0,South,15.0,19.6,N/A,,Clear,170,2012-10-24 17:35:00
12:55 PM,80.6,50.0,34,30.03,10.0,South,16.1,24.2,N/A,,Clear,180,2012-10-24 17:55:00
1:15 PM,82.4,51.8,35,30.03,10.0,South,15.0,24.2,N/A,,Clear,170,2012-10-24 18:15:00
1:35 PM,82.4,48.2,30,30.01,10.0,South,20.7,27.6,N/A,,Clear,190,2012-10-24 18:35:00
2:15 PM,82.4,50.0,32,29.99,10.0,South,17.3,21.9,N/A,,Clear,180,2012-10-24 19:15:00
2:35 PM,82.4,48.2,30,29.98,10.0,South,16.1,25.3,N/A,,Clear,180,2012-10-24 19:35:00
2:55 PM,84.2,48.2,29,29.97,10.0,South,18.4,28.8,N/A,,Clear,190,2012-10-24 19:55:00
3:15 PM,84.2,48.2,29,29.96,10.0,SSW,20.7,25.3,N/A,,Clear,200,2012-10-24 20:15:00
3:35 PM,84.2,50.0,30,29.95,10.0,South,17.3,26.5,N/A,,Clear,180,2012-10-24 20:35:00
3:55 PM,84.2,48.2,29,29.94,10.0,South,17.3,24.2,N/A,,Clear,170,2012-10-24 20:55:00
4:15 PM,84.2,46.4,27,29.94,10.0,SSW,23.0,26.5,N/A,,Clear,200,2012-10-24 21:15:00
4:35 PM,84.2,46.4,27,29.94,10.0,South,19.6,26.5,N/A,,Clear,180,2012-10-24 21:35:00
4:55 PM,86.0,46.4,25,29.94,10.0,SSW,15.0,23.0,N/A,,Clear,200,2012-10-24 21:55:00
5:15 PM,84.2,46.4,27,29.94,10.0,SSW,16.1,24.2,N/A,,Clear,210,2012-10-24 22:15:00
5:35 PM,84.2,44.6,25,29.93,10.0,SSW,13.8,21.9,N/A,,Clear,210,2012-10-24 22:35:00
5:55 PM,84.2,44.6,25,29.93,10.0,SSW,15.0,24.2,N/A,,Clear,200,2012-10-24 22:55:00
6:15 PM,84.2,39.2,20,29.93,10.0,SW,15.0,18.4,N/A,,Clear,230,2012-10-24 23:15:00
6:35 PM,82.4,39.2,21,29.94,10.0,SW,13.8,20.7,N/A,,Clear,220,2012-10-24 23:35:00
6:55 PM,80.6,37.4,21,29.94,10.0,SSW,8.1,-,N/A,,Clear,210,2012-10-24 23:55:00
7:15 PM,77.0,37.4,24,29.95,10.0,SW,8.1,-,N/A,,Clear,220,2012-10-25 00:15:00
7:35 PM,71.6,37.4,29,29.95,10.0,SW,6.9,-,N/A,,Clear,230,2012-10-25 00:35:00
7:55 PM,69.8,37.4,31,29.95,10.0,SW,8.1,-,N/A,,Clear,220,2012-10-25 00:55:00
8:15 PM,69.8,37.4,31,29.96,10.0,SW,6.9,-,N/A,,Clear,230,2012-10-25 01:15:00
8:35 PM,71.6,37.4,29,29.97,10.0,West,9.2,-,N/A,,Clear,280,2012-10-25 01:35:00
8:55 PM,66.2,33.8,30,29.97,10.0,West,9.2,-,N/A,,Clear,280,2012-10-25 01:55:00
9:15 PM,62.6,32.0,32,29.97,10.0,WNW,8.1,-,N/A,,Clear,300,2012-10-25 02:15:00
9:35 PM,66.2,32.0,28,29.98,10.0,Calm,Calm,-,N/A,,Clear,0,2012-10-25 02:35:00
9:55 PM,66.2,33.8,30,29.98,10.0,Calm,Calm,-,N/A,,Clear,0,2012-10-25 02:55:00
10:15 PM,64.4,41.0,42,29.98,10.0,Calm,Calm,-,N/A,,Clear,0,2012-10-25 03:15:00
10:35 PM,62.6,48.2,59,29.99,10.0,Calm,Calm,-,N/A,,Clear,0,2012-10-25 03:35:00
10:55 PM,62.6,46.4,55,29.99,10.0,Calm,Calm,-,N/A,,Clear,0,2012-10-25 03:55:00
11:15 PM,62.6,50.0,63,29.99,10.0,Calm,Calm,-,N/A,,Clear,0,2012-10-25 04:15:00
11:35 PM,59.0,50.0,72,29.99,10.0,Calm,Calm,-,N/A,,Clear,0,2012-10-25 04:35:00
11:55 PM,53.6,42.8,67,29.99,10.0,Calm,Calm,-,N/A,,Clear,0,2012-10-25 04:55:00